Skip Page Navigation
NASA JPL Caltech
NASA Logo - Jet Propulsion Laboratory + View the NASA Portal
+ Center for Near-Earth Object Studies
JPL Home Earth Solar System Stars & Galaxies Technology
JPL Solar System Dynamics
BODIES ORBITS EPHEMERIDES TOOLS PHYSICAL DATA DISCOVERY FAQ SITE MAP
IMPORTANT: The SSD Announcement email list is now available. Major changes are coming in the near future, including possible hostname and/or URL changes. To be notified of such changes, subscribe to this email list.

Please visit this page for more details.


JPL Small-Body Database Browser
Search: [ help ]  
35263 (1996 NH3)
Classification: Main-belt Asteroid          SPK-ID: 2035263
Ephemeris | Orbit Diagram | Orbital Elements | Mission Design | Physical Parameters | Discovery Circumstances | Close-Approach Data ]

[ show orbit diagram ]
Orbital Elements at Epoch 2458600.5 (2019-Apr-27.0) TDB
Reference: JPL 20 (heliocentric ecliptic J2000)
 Element Value Uncertainty (1-sigma)   Units 
e .1790809396642752 4.6785e-08  
a 2.695679021945925 1.2669e-08 au
q 2.212934289662575 1.2985e-07 au
i .8248706336347748 4.3772e-06 deg
node 304.210267129898 0.00031836 deg
peri 73.77710713380208 0.00031856 deg
M 5.016013591509617 1.2019e-05 deg
tp 2458577.975409764657
(2019-Apr-04.47540976)
5.3895e-05 TDB
period 1616.593004941021
4.43
1.1397e-05
3.12e-08
d
yr
n .2226905590335238 1.5699e-09 deg/d
Q 3.178423754229276 1.4938e-08 au
  Orbit Determination Parameters
   # obs. used (total)      740  
   data-arc span      8153 days (22.32 yr)  
   first obs. used      1996-07-14  
   last obs. used      2018-11-09  
   planetary ephem.      DE431  
   SB-pert. ephem.      SB431-N16  
   condition code      0  
   norm. resid. RMS      .61617  
   source      ORB  
   producer      Otto Matic  
   solution date      2019-Jul-13 01:46:12  

Additional Information
 Earth MOID = 1.21422 au 
 Jupiter MOID = 2.28457 au 
 T_jup = 3.346 
[ show covariance matrix ]

Ephemeris | Orbit Diagram | Orbital Elements | Mission Design | Physical Parameters | Discovery Circumstances | Close-Approach Data ]

Physical Parameter Table
Parameter Symbol Value Units Sigma Reference Notes
absolute magnitude H 15.6   n/a PDS3 (MPO 24157)  

35263 (1996 NH3)          Discovered 1996-Jul-14 by Elst, E. W. at La Silla
Reference: 20020227/Numbers.arcLast Updated: 2004-04-19

[ show close-approach data ]
Ephemeris | Orbit Diagram | Orbital Elements | Mission Design | Physical Parameters | Discovery Circumstances | Close-Approach Data ]
ABOUT SSD CREDITS/AWARDS PRIVACY/COPYRIGHT GLOSSARY LINKS
FirstGov 2019-Oct-21 23:54 UT
(server date/time)  
NASA Home Page
Site Manager:   Ryan S. Park
Webmaster  Alan B. Chamberlin